When you browse on this site, cookies collect data to enhance your experience and personalize the content and advertising you see.
Visit our Privacy Policy to learn more. By continuing to use the site, you agree to this use of cookies and data.

Hourly Weather Lindenberg im Allgäu

Today, 6 August, Thursday

Time Temperature Precipitation Wind Pressure Humidity
00:00 +18°C° 0 mm 2 mps 760 mmHg 67%
01:00 +17°C° 0 mm 2 mps 760 mmHg 67%
02:00 +17°C° 0 mm 2 mps 760 mmHg 67%
03:00 +16°C° 0 mm 2 mps 760 mmHg 66%
04:00 +16°C° 0 mm 2 mps 761 mmHg 65%
05:00 +17°C° 0 mm 2 mps 761 mmHg 63%
06:00 +18°C° 0 mm 2 mps 761 mmHg 62%
07:00 +20°C° 0 mm 2 mps 761 mmHg 60%
08:00 +23°C° 0 mm 2 mps 762 mmHg 54%
09:00 +24°C° 0 mm 2 mps 762 mmHg 47%
10:00 +26°C° 0 mm 3 mps 762 mmHg 41%
11:00 +27°C° 0 mm 3 mps 762 mmHg 39%
12:00 +28°C° 0 mm 3 mps 762 mmHg 37%
13:00 +29°C° 0 mm 3 mps 761 mmHg 35%
14:00 +30°C° 0 mm 3 mps 761 mmHg 37%
15:00 +30°C° 0 mm 3 mps 761 mmHg 39%
16:00 +30°C° 0 mm 3 mps 761 mmHg 40%
17:00 +29°C° 0 mm 3 mps 761 mmHg 47%
18:00 +27°C° 0 mm 2 mps 761 mmHg 54%
19:00 +26°C° 0 mm 2 mps 761 mmHg 60%
20:00 +25°C° 0 mm 2 mps 761 mmHg 66%
21:00 +24°C° 0 mm 2 mps 762 mmHg 71%
22:00 +21°C° 0 mm 2 mps 762 mmHg 77%
23:00 +21°C° 0 mm 2 mps 762 mmHg 78%

Tomorrow, 7 August, Friday

Time Temperature Precipitation Wind Pressure Humidity
00:00 +21°C° 0 mm 2 mps 762 mmHg 80%
01:00 +20°C° 0 mm 2 mps 762 mmHg 82%
02:00 +20°C° 0 mm 2 mps 762 mmHg 82%
03:00 +20°C° 0 mm 2 mps 762 mmHg 82%
04:00 +20°C° 0 mm 2 mps 761 mmHg 81%
05:00 +21°C° 0 mm 2 mps 762 mmHg 79%
06:00 +21°C° 0 mm 2 mps 762 mmHg 77%
07:00 +23°C° 0 mm 2 mps 762 mmHg 75%
08:00 +25°C° 0 mm 2 mps 762 mmHg 70%
09:00 +27°C° 0 mm 2 mps 762 mmHg 64%
10:00 +28°C° 0 mm 3 mps 762 mmHg 59%
11:00 +30°C° 0 mm 3 mps 762 mmHg 54%
12:00 +31°C° 0 mm 3 mps 761 mmHg 49%
13:00 +34°C° 0 mm 3 mps 761 mmHg 44%
14:00 +34°C° 0 mm 3 mps 761 mmHg 43%
15:00 +34°C° 0 mm 3 mps 761 mmHg 43%
16:00 +34°C° 0 mm 2 mps 760 mmHg 43%
17:00 +32°C° 0 mm 2 mps 760 mmHg 47%
18:00 +30°C° 0 mm 2 mps 760 mmHg 52%
19:00 +29°C° 0 mm 2 mps 760 mmHg 56%
20:00 +28°C° 0 mm 2 mps 760 mmHg 59%
21:00 +27°C° 0 mm 2 mps 761 mmHg 62%
22:00 +26°C° 0 mm 2 mps 761 mmHg 65%
23:00 +25°C° 0 mm 2 mps 761 mmHg 68%

Day after tomorrow, 8 August, Saturday

Time Temperature Precipitation Wind Pressure Humidity
00:00 +24°C° 0 mm 2 mps 761 mmHg 71%
01:00 +23°C° 0 mm 2 mps 761 mmHg 73%
02:00 +23°C° 0 mm 2 mps 761 mmHg 74%
03:00 +23°C° 0 mm 2 mps 761 mmHg 75%
04:00 +21°C° 0 mm 2 mps 761 mmHg 76%
05:00 +23°C° 0 mm 2 mps 761 mmHg 72%
06:00 +24°C° 0 mm 2 mps 761 mmHg 68%
07:00 +25°C° 0 mm 2 mps 761 mmHg 63%
08:00 +27°C° 0 mm 2 mps 761 mmHg 56%
09:00 +29°C° 0 mm 3 mps 761 mmHg 49%
10:00 +31°C° 0 mm 3 mps 761 mmHg 42%
11:00 +33°C° 0 mm 3 mps 761 mmHg 39%
12:00 +34°C° 0 mm 3 mps 760 mmHg 36%
13:00 +35°C° 0 mm 3 mps 760 mmHg 33%
14:00 +35°C° 0 mm 2 mps 760 mmHg 33%
15:00 +35°C° 0 mm 2 mps 759 mmHg 33%
16:00 +35°C° 0 mm 2 mps 759 mmHg 33%
17:00 +32°C° 0 mm 2 mps 759 mmHg 39%
18:00 +31°C° 0 mm 2 mps 759 mmHg 45%
19:00 +29°C° 0 mm 2 mps 759 mmHg 51%
20:00 +28°C° 0 mm 2 mps 759 mmHg 55%
21:00 +27°C° 0 mm 2 mps 759 mmHg 59%
22:00 +26°C° 0 mm 2 mps 760 mmHg 63%
23:00 +25°C° 0 mm 2 mps 760 mmHg 65%

9 August, Sunday

Time Temperature Precipitation Wind Pressure Humidity
00:00 +25°C° 0 mm 2 mps 759 mmHg 68%
01:00 +24°C° 0 mm 1 mps 759 mmHg 71%
02:00 +24°C° 0 mm 1 mps 759 mmHg 73%
03:00 +23°C° 0 mm 1 mps 759 mmHg 75%
04:00 +23°C° 0 mm 1 mps 759 mmHg 77%
05:00 +24°C° 0 mm 1 mps 759 mmHg 74%
06:00 +25°C° 0 mm 1 mps 759 mmHg 71%
07:00 +26°C° 0 mm 1 mps 760 mmHg 68%
08:00 +28°C° 0 mm 1 mps 760 mmHg 61%
09:00 +29°C° 0 mm 2 mps 760 mmHg 54%
10:00 +31°C° 0 mm 2 mps 760 mmHg 47%
11:00 +31°C° 0 mm 2 mps 759 mmHg 46%
12:00 +32°C° 0 mm 2 mps 759 mmHg 45%
13:00 +32°C° 0 mm 2 mps 759 mmHg 43%
14:00 +32°C° 0 mm 2 mps 759 mmHg 43%
15:00 +32°C° 0 mm 2 mps 759 mmHg 43%
16:00 +32°C° 0 mm 2 mps 758 mmHg 43%
17:00 +31°C° 0 mm 2 mps 758 mmHg 47%
18:00 +30°C° 0 mm 2 mps 758 mmHg 52%
19:00 +29°C° 0 mm 2 mps 758 mmHg 56%
20:00 +28°C° 0 mm 2 mps 759 mmHg 58%
21:00 +27°C° 0 mm 2 mps 759 mmHg 60%
22:00 +27°C° 0 mm 2 mps 759 mmHg 62%
23:00 +26°C° 0.1 mm 2 mps 759 mmHg 65%

10 August, Monday

Time Temperature Precipitation Wind Pressure Humidity
00:00 +25°C° 0.1 mm 1 mps 759 mmHg 68%
01:00 +24°C° 0.1 mm 1 mps 759 mmHg 70%
02:00 +24°C° 0 mm 1 mps 759 mmHg 73%
03:00 +23°C° 0 mm 1 mps 759 mmHg 75%
04:00 +23°C° 0 mm 1 mps 759 mmHg 77%
05:00 +24°C° 0 mm 1 mps 759 mmHg 74%
06:00 +25°C° 0 mm 1 mps 759 mmHg 72%
07:00 +25°C° 0 mm 2 mps 759 mmHg 69%
08:00 +27°C° 0 mm 2 mps 759 mmHg 61%
09:00 +29°C° 0 mm 2 mps 759 mmHg 54%
10:00 +31°C° 0 mm 2 mps 759 mmHg 46%
11:00 +31°C° 0 mm 2 mps 759 mmHg 45%
12:00 +32°C° 0 mm 2 mps 758 mmHg 43%
13:00 +32°C° 0 mm 2 mps 758 mmHg 41%
14:00 +32°C° 0 mm 2 mps 758 mmHg 42%
15:00 +33°C° 0 mm 3 mps 758 mmHg 42%
16:00 +33°C° 0 mm 3 mps 758 mmHg 42%
17:00 +31°C° 0 mm 3 mps 758 mmHg 47%
18:00 +30°C° 0 mm 2 mps 758 mmHg 52%
19:00 +28°C° 0 mm 2 mps 758 mmHg 56%
20:00 +27°C° 0 mm 2 mps 758 mmHg 61%
21:00 +26°C° 0 mm 2 mps 758 mmHg 66%
22:00 +25°C° 0 mm 2 mps 759 mmHg 71%
23:00 +24°C° 0 mm 2 mps 759 mmHg 74%

11 August, Tuesday

Time Temperature Precipitation Wind Pressure Humidity
00:00 +23°C° 0 mm 2 mps 759 mmHg 77%
01:00 +23°C° 0 mm 1 mps 759 mmHg 80%
02:00 +23°C° 0 mm 2 mps 759 mmHg 81%
03:00 +21°C° 0 mm 2 mps 759 mmHg 82%
04:00 +21°C° 0 mm 2 mps 759 mmHg 83%
05:00 +23°C° 0 mm 2 mps 759 mmHg 81%
06:00 +23°C° 0 mm 2 mps 759 mmHg 79%
07:00 +24°C° 0 mm 2 mps 759 mmHg 77%
08:00 +26°C° 0.1 mm 2 mps 759 mmHg 70%
09:00 +28°C° 0.1 mm 2 mps 759 mmHg 62%
10:00 +30°C° 0.1 mm 2 mps 759 mmHg 55%
11:00 +30°C° 0.3 mm 2 mps 759 mmHg 51%
12:00 +31°C° 0.3 mm 3 mps 759 mmHg 48%
13:00 +33°C° 0.3 mm 3 mps 759 mmHg 44%
14:00 +33°C° 0 mm 3 mps 758 mmHg 43%
15:00 +33°C° 0 mm 3 mps 758 mmHg 43%
16:00 +33°C° 0 mm 4 mps 758 mmHg 42%
17:00 +30°C° 0 mm 3 mps 758 mmHg 47%
18:00 +29°C° 0 mm 3 mps 758 mmHg 52%
19:00 +28°C° 0 mm 3 mps 759 mmHg 56%
20:00 +26°C° 0 mm 3 mps 759 mmHg 61%
21:00 +25°C° 0 mm 3 mps 759 mmHg 66%
22:00 +24°C° 0 mm 3 mps 759 mmHg 70%
23:00 +22°C° 0 mm 3 mps 760 mmHg 73%
Show more